DW0148 Weather Reports


time (UTC)temp
C
wind
direction
speed
KPH
gust
KPH
rain 1hr
cm
rain 24hr
cm
rain mn
cm
humidity
%
barometer
mb
20260902161356 32 162 0.0 0.0 0.00 0.00 0.00 71 1017.9
20260902160854 32 159 0.0 0.0 0.00 0.00 0.00 70 1017.9
20260902160354 32 167 0.0 0.0 0.00 0.00 0.00 71 1017.9
20260902155852 32 158 0.0 0.0 0.00 0.00 0.00 73 1017.9
20260902155351 32 163 0.0 0.0 0.00 0.00 0.00 73 1018.3
20260902154851 31 161 0.0 0.0 0.00 0.00 0.00 73 1018.3
20260902154350 32 163 0.0 0.0 0.00 0.00 0.00 73 1018.3
20260902153849 31 160 0.0 0.0 0.00 0.00 0.00 75 1018.3
20260902153347 31 163 0.0 0.0 0.00 0.00 0.00 75 1018.3
20260902152845 31 162 0.0 0.0 0.00 0.00 0.00 76 1018.3
20260902152344 31 159 0.0 0.0 0.00 0.00 0.00 75 1018.6
20260902151843 30 149 0.0 0.0 0.00 0.00 0.00 75 1018.3
20260902151343 30 149 0.0 0.0 0.00 0.00 0.00 76 1018.3
20260902150842 30 149 0.0 0.0 0.00 0.00 0.00 76 1018.3
20260902150339 30 155 0.0 0.0 0.00 0.00 0.00 78 1018.3
20260902145705 30 149 0.0 0.0 0.00 0.00 0.00 80 1018.3
20260902145204 29 146 0.0 0.0 0.00 0.00 0.00 78 1018.3
20260902144703 29 155 0.0 0.0 0.00 0.00 0.00 77 1018.3
20260902144201 29 149 0.0 0.0 0.00 0.00 0.00 78 1017.9
20260902143700 30 150 0.0 0.0 0.00 0.00 0.00 78 1018.3
20260902143159 30 148 0.0 0.0 0.00 0.00 0.00 76 1018.3
20260902142658 30 153 0.0 0.0 0.00 0.00 0.00 78 1018.3
20260902142157 29 150 0.0 0.0 0.00 0.00 0.00 80 1018.3
20260902141656 28 152 0.0 0.0 0.00 0.00 0.00 80 1018.3
20260902141121 28 149 0.0 0.0 0.00 0.00 0.00 81 1018.3
20260902140621 27 149 0.0 0.0 0.00 0.00 0.00 81 1018.3
20260902140049 27 150 0.0 0.0 0.00 0.00 0.00 81 1018.3
20260902135548 27 150 0.0 0.0 0.00 0.00 0.00 85 1018.3
20260902135046 27 152 0.0 0.0 0.00 0.00 0.00 84 1018.3
20260902134545 26 154 0.0 0.0 0.00 0.00 0.00 84 1018.3
20260902134043 26 149 0.0 0.0 0.00 0.00 0.00 87 1018.3
20260902133542 26 149 0.0 0.0 0.00 0.00 0.00 87 1018.3
20260902133041 25 149 0.0 0.0 0.00 0.00 0.00 91 1018.6
20260902132509 25 149 0.0 0.0 0.00 0.00 0.00 93 1018.6
20260902132008 24 149 0.0 0.0 0.00 0.00 0.00 95 1018.3
20260902131507 24 149 0.0 0.0 0.00 0.00 0.00 95 1018.3
20260902131006 23 149 0.0 0.0 0.00 0.00 0.00 95 1018.3
20260902130504 23 149 0.0 0.0 0.00 0.00 0.00 95 1018.3
20260902130002 23 150 0.0 0.0 0.00 0.00 0.00 95 1018.3
20260902125500 23 149 0.0 0.0 0.00 0.00 0.00 95 1018.3
20260902124959 23 149 0.0 0.0 0.00 0.00 0.00 95 1018.3
20260902124458 22 155 0.0 0.0 0.00 0.00 0.00 95 1018.3
20260902123957 22 155 0.0 0.0 0.00 0.00 0.00 95 1018.3
20260902123455 22 155 0.0 0.0 0.00 0.00 0.00 95 1018.3
20260902122954 22 155 0.0 0.0 0.00 0.00 0.00 95 1018.3
20260902122452 22 155 0.0 0.0 0.00 0.00 0.00 95 1018.3
20260902121920 22 155 0.0 0.0 0.00 0.00 0.00 95 1018.3
20260902121419 22 155 0.0 0.0 0.00 0.00 0.00 95 1017.9
20260902120745 22 155 0.0 0.0 0.00 0.00 0.00 95 1017.9
20260902120244 21 155 0.0 0.0 0.00 0.00 0.00 95 1017.9
20260902115742 21 155 0.0 0.0 0.00 0.00 0.00 95 1017.9
20260902115208 21 155 0.0 0.0 0.00 0.00 0.00 95 1017.9
20260902114707 21 155 0.0 0.0 0.00 0.00 0.00 95 1017.6
20260902114206 21 155 0.0 0.0 0.00 0.00 0.00 95 1017.6
20260902113634 21 155 0.0 0.0 0.00 0.00 0.00 95 1017.6
20260902113102 21 155 0.0 0.0 0.00 0.00 0.00 95 1017.6
20260902112601 21 155 0.0 0.0 0.00 0.00 0.00 95 1017.3
20260902112100 21 155 0.0 0.0 0.00 0.00 0.00 95 1017.3
20260902111559 21 155 0.0 0.0 0.00 0.00 0.00 95 1017.3
20260902111058 21 155 0.0 0.0 0.00 0.00 0.00 95 1017.3
20260902110557 21 155 0.0 0.0 0.00 0.00 0.00 95 1017.3
20260902110056 21 155 0.0 0.0 0.00 0.00 0.00 95 1017.3
20260902105555 22 155 0.0 0.0 0.00 0.00 0.00 95 1017.3
20260902105054 22 155 0.0 0.0 0.00 0.00 0.00 95 1017.3
20260902104553 22 155 0.0 0.0 0.00 0.00 0.00 95 1017.3
20260902104052 22 155 0.0 0.0 0.00 0.00 0.00 95 1016.9
20260902103551 22 155 0.0 0.0 0.00 0.00 0.00 95 1016.9
20260902103051 22 155 0.0 0.0 0.00 0.00 0.00 95 1016.9
20260902102549 22 155 0.0 0.0 0.00 0.00 0.00 95 1016.9
20260902102049 22 155 0.0 0.0 0.00 0.00 0.00 95 1016.9
20260902101517 22 155 0.0 0.0 0.00 0.00 0.00 95 1016.9
20260902101016 22 155 0.0 0.0 0.00 0.00 0.00 95 1016.9
20260902100515 22 155 0.0 0.0 0.00 0.00 0.00 95 1016.6
20260902095911 22 155 0.0 0.0 0.00 0.00 0.00 95 1016.6
20260902095410 22 155 0.0 0.0 0.00 0.00 0.00 95 1016.6
20260902094909 22 155 0.0 0.0 0.00 0.00 0.00 95 1016.6
20260902094408 22 155 0.0 0.0 0.00 0.00 0.00 95 1016.6
20260902093906 22 155 0.0 0.0 0.00 0.00 0.00 95 1016.6
20260902093405 22 155 0.0 0.0 0.00 0.00 0.00 95 1016.6
20260902092833 22 155 0.0 0.0 0.00 0.00 0.00 95 1016.6
20260902092331 22 155 0.0 0.0 0.00 0.00 0.00 95 1016.6
20260902091728 22 155 0.0 0.0 0.00 0.00 0.00 95 1016.6
20260902091227 22 155 0.0 0.0 0.00 0.00 0.00 95 1016.6
20260902090726 22 155 0.0 0.0 0.00 0.00 0.00 95 1016.6
20260902090225 22 155 0.0 0.0 0.00 0.00 0.00 95 1016.6
20260902085724 22 155 0.0 0.0 0.00 0.00 0.00 95 1016.3
20260902085223 22 155 0.0 0.0 0.00 0.00 0.00 95 1016.3
20260902084721 22 155 0.0 0.0 0.00 0.00 0.00 95 1016.3
20260902084219 22 155 0.0 0.0 0.00 0.00 0.00 95 1016.3
20260902083719 22 155 0.0 0.0 0.00 0.00 0.00 95 1015.9
20260902083217 22 155 0.0 0.0 0.00 0.00 0.00 95 1015.9
20260902082716 22 155 0.0 0.0 0.00 0.00 0.00 95 1015.9
20260902082214 22 155 0.0 0.0 0.00 0.00 0.00 95 1015.9
20260902081713 22 155 0.0 0.0 0.00 0.00 0.00 95 1015.9
20260902081212 22 155 0.0 0.0 0.00 0.00 0.00 95 1015.9
20260902080710 22 155 0.0 0.0 0.00 0.00 0.00 95 1015.9
20260902080209 22 155 0.0 0.0 0.00 0.00 0.00 95 1015.9
20260902075708 22 155 0.0 0.0 0.00 0.00 0.00 95 1015.9
20260902075207 22 155 0.0 0.0 0.00 0.00 0.00 95 1015.9
20260902074706 22 155 0.0 0.0 0.00 0.00 0.00 95 1015.9
20260902074205 22 155 0.0 0.0 0.00 0.00 0.00 95 1015.9
20260902073631 22 155 0.0 0.0 0.00 0.00 0.00 95 1015.9
20260902073130 22 155 0.0 0.0 0.00 0.00 0.00 95 1015.9
20260902072629 22 155 0.0 0.0 0.00 0.00 0.00 95 1015.9
20260902072128 22 155 0.0 0.0 0.00 0.00 0.00 95 1015.9
20260902071626 22 155 0.0 0.0 0.00 0.00 0.00 95 1016.3
20260902071125 22 155 0.0 0.0 0.00 0.00 0.00 95 1016.3
20260902070624 22 155 0.0 0.0 0.00 0.00 0.00 95 1016.3
20260902070123 22 155 0.0 0.0 0.00 0.00 0.00 95 1016.3
20260902065622 22 155 0.0 0.0 0.00 0.00 0.00 95 1016.3
20260902065121 22 155 0.0 0.0 0.00 0.00 0.00 95 1016.3
20260902064619 22 155 0.0 0.0 0.00 0.00 0.00 95 1016.3
20260902064016 22 155 0.0 0.0 0.00 0.00 0.00 95 1016.3
20260902063515 22 155 0.0 0.0 0.00 0.00 0.00 95 1016.3
20260902062942 22 155 0.0 0.0 0.00 0.00 0.00 95 1016.3
20260902062440 22 155 0.0 0.0 0.00 0.00 0.00 95 1016.3
20260902061939 22 155 0.0 0.0 0.00 0.00 0.00 95 1016.3
20260902061438 22 155 0.0 0.0 0.00 0.00 0.00 95 1016.3
20260902060906 22 155 0.0 0.0 0.00 0.00 0.00 95 1016.3
20260902060405 22 155 0.0 0.0 0.00 0.00 0.00 95 1016.3
20260902055904 22 155 0.0 0.0 0.00 0.00 0.00 95 1016.3
20260902055403 22 155 0.0 0.0 0.00 0.00 0.00 95 1016.6
20260902054901 22 155 0.0 0.0 0.00 0.00 0.00 95 1016.6
20260902054359 22 155 0.0 0.0 0.00 0.00 0.00 95 1016.3
20260902053858 22 155 0.0 0.0 0.00 0.00 0.00 95 1016.3
20260902053357 22 155 0.0 0.0 0.00 0.00 0.00 95 1016.3
20260902052855 22 155 0.0 0.0 0.00 0.00 0.00 95 1016.3
20260902052324 22 155 0.0 0.0 0.00 0.00 0.00 95 1016.3
20260902051752 22 155 0.0 0.0 0.00 0.00 0.00 95 1016.3
20260902051251 22 155 0.0 0.0 0.00 0.00 0.00 95 1016.3
20260902050749 22 155 0.0 0.0 0.00 0.00 0.00 95 1016.3
20260902050247 22 155 0.0 0.0 0.00 0.00 0.00 95 1016.3
20260902045746 22 155 0.0 0.0 0.00 0.00 0.00 95 1016.3
20260902045246 22 155 0.0 0.0 0.00 0.00 0.00 95 1016.3
20260902044745 22 155 0.0 0.0 0.00 0.00 0.00 95 1016.3
20260902044244 22 155 0.0 0.0 0.00 0.00 0.00 95 1016.3
20260902043742 23 155 0.0 0.0 0.00 0.00 0.00 95 1016.3
20260902043239 23 155 0.0 0.0 0.00 0.00 0.00 95 1016.3
20260902042738 23 155 0.0 0.0 0.00 0.00 0.00 95 1016.3
20260902042238 23 155 0.0 0.0 0.00 0.00 0.00 95 1016.3
20260902041736 23 155 0.0 0.0 0.00 0.00 0.00 95 1016.3
20260902041234 23 155 0.0 0.0 0.00 0.00 0.00 95 1016.3
20260902040733 23 155 0.0 0.0 0.00 0.00 0.00 95 1016.3
20260902040232 23 155 0.0 0.0 0.00 0.00 0.00 95 1016.3
20260902035659 23 155 0.0 0.0 0.00 0.00 0.00 95 1016.3
20260902035158 23 155 0.0 0.0 0.00 0.00 0.00 95 1016.3
20260902034657 23 155 0.0 0.0 0.00 0.00 0.00 94 1016.3
20260902034156 23 155 0.0 0.0 0.00 0.00 0.00 95 1016.3
20260902033655 23 155 0.0 0.0 0.00 0.00 0.00 94 1016.3
20260902033153 23 155 0.0 0.0 0.00 0.00 0.00 94 1016.3
20260902032652 23 155 0.0 0.0 0.00 0.00 0.00 94 1016.3
20260902032150 23 155 0.0 0.0 0.00 0.00 0.00 94 1016.3
20260902031649 23 155 0.0 0.0 0.00 0.00 0.00 95 1016.3
20260902031147 23 155 0.0 0.0 0.00 0.00 0.00 95 1016.3
20260902030647 23 155 0.0 0.0 0.00 0.00 0.00 94 1016.3
20260902030145 23 155 0.0 0.0 0.00 0.00 0.00 94 1016.3
20260902025643 23 153 0.0 0.0 0.00 0.00 0.00 94 1016.3
20260902025038 23 153 0.0 0.0 0.00 0.00 0.00 94 1016.3
20260902024537 23 153 0.0 0.0 0.00 0.00 0.00 94 1016.3
20260902024035 23 153 0.0 0.0 0.00 0.00 0.00 94 1016.3
20260902023533 23 153 0.0 0.0 0.00 0.00 0.00 94 1016.3
20260902023031 23 153 0.0 0.0 0.00 0.00 0.00 93 1015.9
20260902022531 23 153 0.0 0.0 0.00 0.00 0.00 93 1015.9
20260902022030 23 153 0.0 0.0 0.00 0.00 0.00 93 1015.9
20260902021528 23 153 0.0 0.0 0.00 0.00 0.00 92 1015.9
20260902021028 24 153 0.0 0.0 0.00 0.00 0.00 92 1015.9
20260902020527 24 153 0.0 0.0 0.00 0.00 0.00 92 1015.9
20260902015953 24 153 0.0 0.0 0.00 0.00 0.00 92 1015.9
20260902015451 24 153 0.0 0.0 0.00 0.00 0.00 92 1015.9
20260902014950 24 153 0.0 0.0 0.00 0.00 0.00 92 1015.9
20260902014449 24 153 0.0 0.0 0.00 0.00 0.00 92 1015.9
20260902013948 24 153 0.0 0.0 0.00 0.00 0.00 92 1015.9
20260902013447 24 153 0.0 0.0 0.00 0.00 0.00 91 1015.9
20260902012915 24 153 0.0 0.0 0.00 0.00 0.00 91 1015.9
20260902012414 24 153 0.0 0.0 0.00 0.00 0.00 91 1015.9
20260902011913 24 153 0.0 0.0 0.00 0.00 0.00 91 1015.9
20260902011339 25 153 0.0 0.0 0.00 0.00 0.00 91 1015.9
20260902010838 25 153 0.0 0.0 0.00 0.00 0.00 91 1015.6
20260902010337 25 155 0.0 0.0 0.00 0.00 0.00 90 1015.6
20260902005836 25 155 0.0 0.0 0.00 0.00 0.00 90 1015.6
20260902005335 25 153 0.0 0.0 0.00 0.00 0.00 90 1015.6
20260902004834 25 153 0.0 0.0 0.00 0.00 0.00 90 1015.6
20260902004333 25 155 0.0 0.0 0.00 0.00 0.00 89 1015.6
20260902003832 25 153 0.0 0.0 0.00 0.00 0.00 89 1015.6
20260902003331 25 153 0.0 0.0 0.00 0.00 0.00 89 1015.6
20260902002829 26 153 0.0 0.0 0.00 0.00 0.00 89 1015.2
20260902002328 26 153 0.0 0.0 0.00 0.00 0.00 88 1015.6
20260902001827 26 153 0.0 0.0 0.00 0.00 0.00 88 1015.6
20260902001326 26 153 0.0 0.0 0.00 0.00 0.00 88 1015.2
20260902000825 26 153 0.0 0.0 0.00 0.00 0.00 88 1015.6
20260902000324 27 153 0.0 0.0 0.00 0.00 0.00 88 1015.6
20260901235822 27 153 0.0 0.0 0.00 0.00 0.00 88 1015.6
20260901235320 27 153 0.0 0.0 0.00 0.00 0.00 87 1015.6
20260901234819 27 153 0.0 0.0 0.00 0.00 0.00 87 1015.6
20260901234318 27 153 0.0 0.0 0.00 0.00 0.00 87 1015.6
20260901233817 28 154 0.0 0.0 0.00 0.00 0.00 86 1015.6
20260901233316 28 153 0.0 0.0 0.00 0.00 0.00 85 1015.6
20260901232744 28 153 0.0 0.0 0.00 0.00 0.00 85 1015.6
20260901232210 28 153 0.0 0.0 0.00 0.00 0.00 84 1015.6
20260901231709 28 153 0.0 0.0 0.00 0.00 0.00 84 1015.6
20260901231208 29 154 0.0 0.0 0.00 0.00 0.00 84 1015.6
20260901230635 29 154 0.0 0.0 0.00 0.00 0.00 83 1015.6
20260901230134 30 154 0.0 0.0 0.00 0.00 0.00 82 1015.6
20260901225633 30 153 0.0 0.0 0.00 0.00 0.00 80 1015.6
20260901225132 30 153 0.0 0.0 0.00 0.00 0.00 79 1015.6
20260901224631 30 153 0.0 0.0 0.00 0.00 0.00 77 1015.6
20260901224129 30 153 0.0 0.0 0.00 0.00 0.00 76 1015.6
20260901223628 31 153 0.0 0.0 0.00 0.00 0.00 74 1015.6
20260901223127 31 153 0.0 0.0 0.00 0.00 0.00 73 1015.6
20260901222625 31 154 0.0 0.0 0.00 0.00 0.00 73 1015.6
20260901222124 31 154 0.0 0.0 0.00 0.00 0.00 71 1015.6
20260901221551 32 154 0.0 0.0 0.00 0.00 0.00 71 1015.6
20260901221050 32 153 0.0 0.0 0.00 0.00 0.00 68 1015.6
20260901220549 32 154 0.0 0.0 0.00 0.00 0.00 67 1015.6
20260901220047 32 154 0.0 0.0 0.00 0.00 0.00 64 1015.6
20260901215546 32 155 0.0 0.0 0.00 0.00 0.00 64 1015.6
20260901215044 32 153 0.0 0.0 0.00 0.00 0.00 63 1015.6
20260901214543 32 145 0.0 0.0 0.00 0.00 0.00 61 1015.6
20260901214042 33 148 0.0 0.0 0.00 0.00 0.00 60 1015.6
20260901213541 33 142 0.0 0.0 0.00 0.00 0.00 62 1015.6
20260901213040 33 141 0.0 0.0 0.00 0.00 0.00 59 1015.6
20260901212539 33 163 0.0 0.0 0.00 0.00 0.00 60 1015.6
20260901212038 34 145 0.0 0.0 0.00 0.00 0.00 57 1015.6
20260901211537 34 145 0.0 0.0 0.00 0.00 0.00 60 1015.6
20260901211034 34 146 0.0 0.0 0.00 0.00 0.00 58 1015.6
20260901210534 35 146 0.0 0.0 0.00 0.00 0.00 59 1015.6
20260901210031 35 174 0.0 0.0 0.00 0.00 0.00 57 1015.6
20260901205530 35 165 0.0 0.0 0.00 0.00 0.00 59 1015.6
20260901205030 35 173 0.0 0.0 0.00 0.00 0.00 59 1015.9
20260901204529 35 174 0.0 0.0 0.00 0.00 0.00 55 1015.9
20260901204028 35 174 0.0 0.0 0.00 0.00 0.00 56 1015.9
20260901203525 35 187 0.0 0.0 0.00 0.00 0.00 56 1015.9
20260901203025 35 174 0.0 0.0 0.00 0.00 0.00 56 1015.9
20260901202523 35 187 0.0 0.0 0.00 0.00 0.00 55 1015.9
20260901202022 35 186 0.0 0.0 0.00 0.00 0.00 53 1015.9
20260901201522 35 172 0.0 0.0 0.00 0.00 0.00 56 1015.9
20260901201021 35 162 0.0 0.0 0.00 0.00 0.00 53 1016.3
20260901200519 35 187 0.0 0.0 0.00 0.00 0.00 60 1016.3
20260901200018 35 188 0.0 0.0 0.00 0.00 0.00 59 1016.3
20260901195444 35 188 0.0 0.0 0.00 0.00 0.00 57 1016.3
20260901194943 35 183 0.0 0.0 0.00 0.00 0.00 56 1016.3
20260901194441 35 158 0.0 0.0 0.00 0.00 0.00 55 1016.3
20260901193940 34 150 0.0 0.0 0.00 0.00 0.00 60 1016.3
20260901193407 34 172 0.0 0.0 0.00 0.00 0.00 57 1016.3
20260901192906 34 143 0.0 0.0 0.00 0.00 0.00 59 1016.3
20260901192302 34 190 0.0 0.0 0.00 0.00 0.00 56 1016.3
20260901191801 33 155 0.0 0.0 0.00 0.00 0.00 56 1016.6
20260901191258 33 139 0.0 0.0 0.00 0.00 0.00 57 1016.6
20260901190756 33 140 0.0 0.0 0.00 0.00 0.00 56 1016.6
20260901190254 33 139 0.0 0.0 0.00 0.00 0.00 59 1016.6
20260901185753 33 143 0.0 0.0 0.00 0.00 0.00 59 1016.6
20260901185252 33 150 0.0 0.0 0.00 0.00 0.00 60 1016.9
20260901184751 33 188 0.0 0.0 0.00 0.00 0.00 57 1016.9
20260901184250 33 141 0.0 0.0 0.00 0.00 0.00 57 1016.9
20260901183748 34 139 0.0 0.0 0.00 0.00 0.00 56 1016.9
20260901183247 33 169 0.0 0.0 0.00 0.00 0.00 58 1016.9
20260901182745 33 181 0.0 0.0 0.00 0.00 0.00 59 1016.9
20260901182243 33 177 0.0 0.0 0.00 0.00 0.00 58 1017.3
20260901181741 33 142 0.0 0.0 0.00 0.00 0.00 56 1017.3
20260901181240 33 190 0.0 0.0 0.00 0.00 0.00 60 1017.3
20260901180739 33 142 0.0 0.0 0.00 0.00 0.00 58 1017.3
20260901180237 33 184 0.0 0.0 0.00 0.00 0.00 57 1017.3
20260901175736 33 185 0.0 0.0 0.00 0.00 0.00 60 1017.3
20260901175235 33 185 0.0 0.0 0.00 0.00 0.00 58 1017.3
20260901174734 33 166 0.0 0.0 0.00 0.00 0.00 56 1017.3
20260901174201 33 167 0.0 0.0 0.00 0.00 0.00 60 1017.6
20260901173700 33 181 0.0 0.0 0.00 0.00 0.00 57 1017.6